Preview of NWS' New Version of Forecast
This preview is not operational and should not be used for support decisions.

Regional Weather Roundup (RWR)

Issued by Philadelphia/Mt Holly (PHI)

                            
000
ASUS41 KPHI 230812
RWRPHI

REGIONAL WEATHER ROUNDUP
NATIONAL WEATHER SERVICE MOUNT HOLLY NJ
400 AM EDT SAT MAR 23 2019

NOTE:  "FAIR" INDICATES FEW OR NO CLOUDS BELOW 12,000 FEET WITH NO
SIGNIFICANT WEATHER AND/OR OBSTRUCTIONS TO VISIBILITY.

 * = STATION DOES NOT REPORT PRECIPITATION (E.G. RAIN, SNOW, ETC.) 
        OR FOG.

NJZ015>026-230900-
SOUTHERN NEW JERSEY
  
CITY           SKY/WX    TMP DP  RH WIND       PRES   REMARKS
POMONA         MOCLDY    36  23  59 W25G38    29.72R WCI  24          
WILDWOOD*      FAIR      38  23  55 NW18G29   29.79R WCI  28          
MILLVILLE      MOCLDY    35  21  56 W18G32    29.78R WCI  24          
WRIGHTSTOWN    CLOUDY    37  22  55 W23G30    29.67R WCI  25          
MOUNT HOLLY    CLOUDY    37  21  52 W20G26    29.73R WCI  27          
TRENTON        CLOUDY    36  23  59 NW16G26   29.69R WCI  26          

$$
NJZ001>014-230900-
NORTHERN NEW JERSEY
  
CITY           SKY/WX    TMP DP  RH WIND       PRES   REMARKS
SUSSEX         CLOUDY    32  20  61 W10G20    29.65R WCI  24          
ANDOVER*         N/A     31  19  61 NW8G23    29.66R WCI  23          
MORRISTOWN     CLOUDY    34  21  60 W15G25    29.65R WCI  24          
NEWARK         MOCLDY    35  20  54 W30G38    29.64R WCI  22          
TETERBORO      CLOUDY    34  22  61 W18G32    29.62R WCI  23          
CALDWELL       CLOUDY    34  20  56 NW20G26   29.64R WCI  23          
SOMERVILLE     CLOUDY    35  21  56 NW21G35   29.67R WCI  24          
ALLAIRE*       CLOUDY    36  23  59 W28G43    29.65R WCI  23          
TOMS RIVER*    MOCLDY    37  23  56 W18G29    29.68R WCI  27          

$$
PAZ043-044-047-054-055-060>062-066>071-230900-
EASTERN PENNSYLVANIA
  
CITY           SKY/WX    TMP DP  RH WIND       PRES   REMARKS
PHILADELPHIA   CLOUDY    37  20  50 W17G26    29.76R WCI  27          
NORTH PHILA    CLOUDY    38  21  50 NW20G26   29.74R WCI  28          
BLUE BELL*     CLOUDY    34  23  64 W13G23    29.75R WCI  25          
DOYLESTOWN     CLOUDY    34  21  59 NW15G32   29.70R WCI  24          
QUAKERTOWN*    CLOUDY    34  21  60 W13G22    29.73  WCI  25          
PERKASIE*      CLOUDY    32  19  59 W23G32    29.72R WCI  19          
POTTSTOWN      CLOUDY    33  21  61 W13G26    29.76R WCI  24          
LANCASTER      CLOUDY    35  21  56 W28G36    29.80R WCI  22          
COATESVILLE    MOCLDY    32  21  64 NW23G37   29.76S WCI  19          
READING        CLOUDY    34  23  64 W22G31    29.77R WCI  22          
ALLENTOWN      CLOUDY    36  20  52 NW15G36   29.72R WCI  27          
MOUNT POCONO   FLURRIES  24  20  84 W26G38    29.59R WCI   8          
HAZLETON       CLOUDY    30  19  64 W14G23    29.72R WCI  20          
LEHIGHTON      CLOUDY    34  21  60 NW8G23    29.75R WCI  27          
WILKES BARRE   CLOUDY    30  20  66 NW16G31   29.72R WCI  19          

$$
DEZALL-MDZ008-012-015-019-020-230900-
DELAWARE AND EASTERN MARYLAND
  
CITY           SKY/WX    TMP DP  RH WIND       PRES   REMARKS
WILMINGTON     MOCLDY    35  20  54 NW22G31   29.79R WCI  23          
DOVER          FAIR      36  20  53 W26G36    29.80R WCI  24          
GEORGETOWN     FAIR      40  23  50 NW13G22   29.83R WCI  32          
EASTON         FAIR      38  23  55 W25G32    29.90R WCI  27          
PATUXENT       FAIR      39  27  62 NW21G30   29.88  WCI  29          
OCEAN CITY     FAIR      39  24  55 NW16G31   29.81R WCI  30          
WALLOPS ISLAND FAIR      42  26  53 NW20G35   29.85R                  
CAMBRIDGE      CLEAR     39  23  52 W16G28    29.87R WCI  30          
SALISBURY      FAIR      39  26  59 W15G24    29.84R WCI  31          

$$
PAZ001-021-NYZ056-072-MDZ011-DCZ001-230900-
OTHER NEARBY LOCATIONS
  
CITY           SKY/WX    TMP DP  RH WIND       PRES   REMARKS
HARRISBURG     MOCLDY    34  21  59 NW23G35   29.84R WCI  22          
STATE COLLEGE  CLOUDY    29  20  68 W13G24    29.88S WCI  19          
WILLIAMSPORT   CLOUDY    32  18  56 W18G28    29.82R WCI  20          
BINGHAMTON     LGT SNOW  23  18  81 NW20G35   29.68R WCI   8          
NEW YORK CITY  CLOUDY    35  21  56 W15G33    29.63R WCI  25          
BALTIMORE      FAIR      36  22  56 W16G31    29.86R WCI  26          
WASHINGTON DC  FAIR      39  22  50 NW18G35   29.90R WCI  30          

$$